Hourly Data Report for October 19, 2014

All times are specified in Local Standard Time (LST). Add 1 hour to adjust for Daylight Saving Time where and when it is observed.

KUGAARUK CLIMATE
NUNAVUT

68°32'15.060" N
89°47'47.020" W
15.80 m
2303094
71407
NBB

Download Data

Hourly Data (October 2014)
Hourly Data Report for October 19, 2014
Temp Definition
°C
Dew Point Temp Definition
°C
Rel Hum Definition
%
Wind Dir Definition
10's deg

Wind Spd Definition
km/h
Visibility Definition
km
Stn Press Definition
kPa
Hmdx Definition


Wind Chill Definition


Weather Definition


TIME
00:00 -5.3 -7.0 88 18 21   100.73   -12 LegendNANA
01:00 -4.6 -6.2 89 17 25   100.67   -12 LegendNANA
02:00 -4.1 -5.8 88 18 25   100.64   -11 LegendNANA
03:00 -3.5 -5.0 89 18 37   100.56   -12 LegendNANA
04:00 -3.3 -4.8 89 19 38   100.52   -12 LegendNANA
05:00 -2.8 -4.5 88 19 38   100.49   -11 LegendNANA
06:00 -2.5 -4.1 89 19 39   100.42   -11 LegendNANA
07:00 -2.4 -4.0 89 19 37   100.40   -10 LegendNANA
08:00 -2.1 -3.8 88 19 34   100.37   -10 LegendNANA
09:00 -1.9 -3.6 88 19 33   100.35   -9 LegendNANA
10:00 -1.8 -3.6 87 19 29   100.32   -9 LegendNANA
11:00 -1.5 -3.5 86 19 27   100.29   -8 LegendNANA
12:00 -1.3 -3.3 87 19 24   100.27   -7 LegendNANA
13:00 -1.2 -3.0 88 18 24   100.22   -7 LegendNANA
14:00 -1.2 -2.7 89 18 23   100.18   -7 LegendNANA
15:00 -1.2 -2.7 90 19 18   100.14   -6 LegendNANA
16:00 -1.4 -2.6 91 21 18   100.13   -7 LegendNANA
17:00 -1.5 -2.5 92 21 18   100.11   -7 LegendNANA
18:00 -1.9 -2.5 95 22 18   100.09   -7 LegendNANA
19:00 -2.6 -3.1 96 23 17   100.08   -8 LegendNANA
20:00 -2.9 -3.4 96 23 15   100.08   -8 LegendNANA
21:00 -3.1 -3.6 96 23 15   100.07   -8 LegendNANA
22:00 -3.2 -3.7 96 24 14   100.09   -8 LegendNANA
23:00 -4.0 -4.6 95 32 14   100.17   -9 LegendNANA

Notes on Data Quality.

Legend

  • E = Estimated
  • M = Missing
  • NA = Not Available
  • ‡ = Partner data that is not subject to review by the National Climate Archives
Date modified: